Location: Ehrke Reservoir
(40.0279°N, 99.6641°W)
Time: 13:51:58
(UTC+00:00)

CENTAUR R/B - Pass Details

Date: 20 January 2020
Orbit: 766 x 1422 km, 63.5° (Epoch: 07 February)

Event Time Altitude Azimuth Distance (km) Brightness Sun altitude
Exits shadow 11:38:55 12° 341° (NNW) 3,057 4.8 -26.1°
Maximum altitude 11:45:28 35° 42° (NE) 2,043 4.4 -24.8°
Drops below altitude 10° 11:53:14 10° 106° (ESE) 3,503 6.5 -23.4°
Sets 11:56:34 0° 115° (ESE) 4,491 7.2 -22.7°
